COMPLETED DISPATCHED CALLS FOR SERVICE

Welcome to the Jacksonville Sheriff’s Office Completed Dispatched Calls for Service webpage. This page displays calls for service made to the Jacksonville Sheriff's Office that have recently been completed. The data on this page is refreshed automatically.

This information is not intended to be used as official crime data. This program does not provide information about all crimes, and excludes specific incidents such as sexual assaults and child abuse.

Disclaimer: The Jacksonville Sheriff's Office makes every effort to produce and publish current and accurate information. No warranties, expressed or implied, are provided for the data herein, its use, or its interpretation. The services provided are for informational purposes only and should not be relied on for any type of legal action.

Last refreshed 1/22 19:13:21

Incident # Dispatched Block Address Signal Call Description  
170122052332 1-22 19:04 N PEARL ST AND W 8TH ST 16 ROAD OBSTRUCTION
170122052272 1-22 18:50 7500 CALVIN ST 63 DISPUTE
170122052302 1-22 18:48 BUNKER HILL BLVD AND LAKE FOREST BLVD 0 13 ARMED SUSPICIOUS PERSON
170122052308 1-22 18:48 8000 ATLANTIC BLVD 1050 TRAFFIC STOP
170122052303 1-22 18:45 6700 CHESTER AVE 76 ASSIST OTHER AGENCY
170122052299 1-22 18:41 700 N MAIN ST 13 SUSPICIOUS PERSON
170122052298 1-22 18:40 PHILLIPS HWY AND PUTNAM AVE 1050 TRAFFIC STOP
170122052295 1-22 18:38 S I295 EXPWY AND COLLINS RD 35 OFFICER NEEDS ASSIST
170122052292 1-22 18:38 100 E 16TH ST 2 22 DOMESTIC DISTURBANCE
170122052293 1-22 18:37 N GATE PKWY AND E TOUCHTON RD 1050 TRAFFIC STOP
170122052235 1-22 18:36 7000 MARK ST 22 DOMESTIC
170122052282 1-22 18:33 N MAIN ST AND MAX LEGGETT PKWY 16 ROAD OBSTRUCTION
170122052286 1-22 18:33 5700 LENOX AVE 76 ASSIST OTHER AGENCY
170122052186 1-22 18:30 SAN MARCO BLVD AND PRUDENTIAL DR 91 TRAFFIC LIGHT/RR CROSSING MALFUNCTION
170122052239 1-22 18:28 5000 PLYMOUTH ST 37 UNVERIFIED 911 CALL
170122052275 1-22 18:27 14500 BEACH BLVD 1050 TRAFFIC STOP
170122052164 1-22 18:26 1600 HAMMOND BLVD 63 DISPUTE
170122052247 1-22 18:23 100 N PEARL ST 63 DISPUTE
170122052262 1-22 18:22 SOUTHSIDE BLVD AND OLD BAYMEADOWS RD 96 ASSIST MOTORIST
170122052251 1-22 18:15 S ST JOHNS BLUFF RD AND N I295 EXPWY 1050 TRAFFIC STOP
170122052246 1-22 18:12 200 E STATE ST 63 DISPUTE
170122052228 1-22 18:08 7100 CATINA CT 60 SUICIDE OR ATTEMPT
170122052223 1-22 18:02 9700 TOUCHTON RD 76 ASSIST OTHER AGENCY
170122052219 1-22 18:02 ATLANTIC BLVD AND N I95 EXPWY 16 ROAD OBSTRUCTION
170122052213 1-22 18:01 1000 WOODSTOCK AVE 63 DISPUTE
170122052204 1-22 18:00 1000 DYAL ST 68 CON GAME/FLIM FLAM
170122052205 1-22 17:59 7900 E BAYMEADOWS CIR 1066 CANCEL
170122052210 1-22 17:58 3700 SOUTEL DR 1066 CANCEL
170122052202 1-22 17:55 1200 LABELLE ST 3388 DISCHARGING FIREARM AT PERSON
170122052198 1-22 17:54 300 E CHURCH ST 76 ASSIST OTHER AGENCY
170122052192 1-22 17:54 N MAIN ST AND W 32ND ST 63 DISPUTE
170122052199 1-22 17:54 2800 COLLEGE 1050 TRAFFIC STOP
170122052197 1-22 17:53 13800 N MAIN ST 63 DISPUTE
170122052172 1-22 17:53 3600 E EVE DR 63 DISPUTE
170122052150 1-22 17:52 9700 N PEABODY DR 13 SUSPICIOUS PERSON
170122052191 1-22 17:52 BEACH BLVD AND ANNISTON RD 76 ASSIST OTHER AGENCY
170122051994 1-22 17:52 7200 MIMOSA GROVE TRL 2 IMPAIRED/INTOXICATED
170122052171 1-22 17:47 10800 CARRINGTON CT 9 THEFT
170122052184 1-22 17:47 6800 SUEMAC PL 1066 CANCEL
170122052183 1-22 17:45 2800 COLLEGE ST 38 TRAFFIC ASSIGNMENT
170122052159 1-22 17:45 3700 S UNIVERSITY BLVD 3 HIT AND RUN CRASH
170122052178 1-22 17:45 500 E BAY ST 9 THEFT
170122052180 1-22 17:44 14200 BEACH BLVD 13 SUSPICIOUS PERSON
170122052177 1-22 17:43 N MC DUFF AVE AND BROADWAY AVE 1050 TRAFFIC STOP
170122052174 1-22 17:43 8800 BEACH BLVD 13 SUSPICIOUS PERSON
170122052101 1-22 17:41 5700 LENOX AVE 63 DISPUTE
170122052168 1-22 17:40 10500 MONOCO DR 63 DISPUTE
170122052166 1-22 17:39 W UNIVERSITY BLVD AND RICHARD ST 4 AUTO CRASH
170122052165 1-22 17:37 W 26TH ST AND MONCRIEF RD 13 SUSPICIOUS PERSON
170122052158 1-22 17:36 10400 ALTA DR 1066 CANCEL
170122052163 1-22 17:36 10800 S HAWAII DR 9 THEFT
170122052157 1-22 17:34 5400 N MARSH CREEK DR 63 DISPUTE
170122052162 1-22 17:34 NORMANDY BLVD AND S ELLIS RD 1050 TRAFFIC STOP
170122052126 1-22 17:33 5700 LENOX AVE 61 FIGHT
170122052149 1-22 17:33 8100 LENOX AVE 76 ASSIST OTHER AGENCY
170122052148 1-22 17:32 400 CENTURY 21 DR 23IJ ROBBERY INDIVIDUAL JUST OCCD
170122052107 1-22 17:31 4100 S BURNING TREE LN 63 DISPUTE
170122052146 1-22 17:28 SILVERPOINT LN AND W GATE PKWY 12 RECKLESS DRIVER
170122052142 1-22 17:27 4000 CEDAR BLUFF LN 22 DOMESTIC
170122052143 1-22 17:27 9200 LEM TURNER RD 22 DOMESTIC
170122052058 1-22 17:27 10500 OLD ST AUGUSTINE RD 54 ILLEGALLY PARKED CAR
170122052141 1-22 17:26 5300 DEVRON DR 1066 CANCEL
170122052138 1-22 17:25 10700 BEACH BLVD 63 DISPUTE
170122052106 1-22 17:24 5800 LA MOYA AVE 19 ANIMAL INVESTIGATION
170122052135 1-22 17:20 700 N LIBERTY 73 DRUG INVESTIGATION
170122052133 1-22 17:20 700 N LIBERTY 73 DRUG INVESTIGATION
170122052132 1-22 17:20 700 N MARKET ST 63 DISPUTE
170122052131 1-22 17:20 700 N LIBERTY 73 DRUG INVESTIGATION
170122052096 1-22 17:19 7200 LAWN TENNIS LN 54 ILLEGALLY PARKED CAR
170122052034 1-22 17:19 5100 118TH ST 13 SUSPICIOUS PERSON
170122052120 1-22 17:19 103RD ST AND WESCONNETT BLVD 12 RECKLESS DRIVER
170122052125 1-22 17:19 4800 ORTEGA FARMS BLVD 37 UNVERIFIED 911 CALL
170122052127 1-22 17:18 AIRPORT CENT ON RAMP TO I 95 NB 96 ASSIST MOTORIST
170122052124 1-22 17:15 W I10 EXPWY AND ROOSEVELT EXPWY 96 ASSIST MOTORIST
170122052110 1-22 17:13 1700 STAFFORD RD 19 ANIMAL INVESTIGATION
170122052084 1-22 17:13 GREENLAND RD AND OLD ST AUGUSTINE EXIT GREENLAN 13 SUSPICIOUS PERSON
170122052121 1-22 17:12 100 E BEAVER ST 13 SUSPICIOUS PERSON
170122052119 1-22 17:12 BEACH BLVD AND HODGES BLVD 1050 TRAFFIC STOP
170122052117 1-22 17:11 9500 ARLINGTON EXPWY 1050 TRAFFIC STOP
170122052108 1-22 17:10 100 E 54TH ST 63 DISPUTE
170122052115 1-22 17:09 NORWOOD AVE AND CRESTWOOD ST 1050 TRAFFIC STOP
170122052085 1-22 17:08 5700 HOEY TER 1066 CANCEL
170122052103 1-22 17:06 2700 LEONID RD 64 NOISE COMPLAINT
170122052097 1-22 17:04 TOWN CENTER PKWY AND MIDTOWN PKWY 91 TRAFFIC LIGHT/RR CROSSING MALFUNCTION
170122052061 1-22 17:03 5900 W UNIVERSITY BLVD 63 DISPUTE
170122052094 1-22 17:00 100 E MATHEWS BRG 16 ROAD OBSTRUCTION
170122052093 1-22 17:00 2500 PARK 1050 TRAFFIC STOP
170122052090 1-22 16:59 600 WOODBINE ST 13 SUSPICIOUS PERSON
170122052087 1-22 16:57 CASSAT/SHELBY 96 ASSIST MOTORIST
170122052069 1-22 16:54 12200 S HINDMARSH CIR 1066 CANCEL
170122052071 1-22 16:54 2500 SRA1A HWY 63 DISPUTE
170122052026 1-22 16:53 MANDARIN POINT LN AND EVANS LN 54 ILLEGALLY PARKED CAR
170122052019 1-22 16:53 7700 HARE AVE 86T LOST PROPERTY (TELESERVE)
170122052065 1-22 16:51 W UNIVERSITY BLVD AND S BARNES RD 13 SUSPICIOUS PERSON
170122052072 1-22 16:49 LOSCO RD AND SHADY GLEN DR 96 ASSIST MOTORIST
170122052070 1-22 16:48 ARLINGTON XY SERVICE RD AND CENTURY ST 1050 TRAFFIC STOP
170122052053 1-22 16:48 700 MORAVON AVE 13 SUSPICIOUS PERSON
170122051981 1-22 16:47 4500 BRYSON DR 14R VANDALISM RESIDENCE
170122052012 1-22 16:46 4300 PUTNAM AVE 22 DOMESTIC
170122052059 1-22 16:43 11700 SAINTS RD 63 DISPUTE
170122052033 1-22 16:43 3600 S KERNAN BLVD 86 LOST PROPERTY
170122052051 1-22 16:42 8400 S LAKE MARIETTA DR 3 HIT AND RUN CRASH
170122052036 1-22 16:41 10500 MONACO DR 73 DRUG INVESTIGATION
170122052021 1-22 16:40 1000 UNIVERSITY BLVD 1066 CANCEL
170122051925 1-22 16:39 TOWNSEND BLVD AND MERRILL RD 91 TRAFFIC LIGHT/RR CROSSING MALFUNCTION
170122052014 1-22 16:38 3200 N SUNNYBROOK AVE 22 DOMESTIC
170122052046 1-22 16:38 100 E 54TH ST 63 DISPUTE
170122051990 1-22 16:37 1100 W ROMAINE CIR 63 DISPUTE
170122052052 1-22 16:37 I95NB/B4NORWOOD AVE 1050 TRAFFIC STOP
170122052050 1-22 16:36 JAMES/WIL 1050 TRAFFIC STOP
170122052041 1-22 16:36 1200 GLENGARRY RD 27 MENTALLY ILL PERSON
170122052032 1-22 16:35 8200 DIX ELLIS TRL 63 DISPUTE
170122051942 1-22 16:34 6700 103RD ST 63 DISPUTE
170122052005 1-22 16:34 7000 S OLD KINGS RD 63 DISPUTE
170122052047 1-22 16:34 I295/MAIN ST EXIT 16 ROAD OBSTRUCTION
170122052043 1-22 16:34 TOWN CENTER PKWY AND S I295 EXPWY 4 AUTO CRASH
170122052017 1-22 16:32 6300 KENNERLY RD 22 DOMESTIC
170122052003 1-22 16:30 5100 COLLINS RD 56 JUVENILE COMPLAINT
170122052018 1-22 16:28 11400 KALEEL RD 22 DOMESTIC
170122052002 1-22 16:28 BLANDING BLVD AND YOUNGERMAN CIR 4 AUTO CRASH
170122052029 1-22 16:27 1900 BLAIR RD 29 WIRE DOWN
170122051926 1-22 16:25 6000 DAVON ST 79 OBSCENE / THREAT CALL OR LETTER
170122052028 1-22 16:25 4300 CONFEDERATE POINT RD 1066 CANCEL
170122052031 1-22 16:25 1700 CORTEZ RD 60 SUICIDE OR ATTEMPT
170122052001 1-22 16:21 8000 103RD ST 14RT VANDALISM RESIDENCE TELESERVE
170122052015 1-22 16:20 1000 DUNN AVE 63 DISPUTE
170122052022 1-22 16:20 N I95 EXPWY AND PARK ST 1050 TRAFFIC STOP
170122052020 1-22 16:18 700 N MAIN ST 13 SUSPICIOUS PERSON
170122051964 1-22 16:16 1100 DIVISION ST 21C BURGLARY CONVEYANCE
170122052013 1-22 16:16 4400 JANA LN 23I ROBBERY INDIVIDUAL
170122052007 1-22 16:14 ATLANTIC BLVD AND JOEANDY RD 4 AUTO CRASH
170122052011 1-22 16:14 700 N MAIN ST 13 SUSPICIOUS PERSON
170122052004 1-22 16:10 5100 NORMANDY BLVD 1050 TRAFFIC STOP
170122051950 1-22 16:09 100 W 38TH ST 9T THEFT (TELESERVE)
170122052000 1-22 16:08 S I95 EXPWY AND SAN MARCO BLVD 16 ROAD OBSTRUCTION
170122051999 1-22 16:08 10500 LEM TURNER RD 60 SUICIDE OR ATTEMPT
170122051969 1-22 16:04 HOLLY BELL DR AND JUSTINA RD 73 DRUG INVESTIGATION
170122051992 1-22 16:03 J TURNER BUTLER BLVD AND GATE PKWY 1050 TRAFFIC STOP
170122051989 1-22 16:03 4500 OCEAN ST 1050 TRAFFIC STOP
170122051968 1-22 16:02 2600 PALMDALE ST 9 THEFT
170122051988 1-22 16:02 6900 COMO RD 22 DOMESTIC
170122051930 1-22 16:01 MERRILL RD AND TOWNSEND BLVD 38 TRAFFIC ASSIGNMENT
170122051977 1-22 15:59 12600 BEACH BLVD 3 HIT AND RUN CRASH
170122051983 1-22 15:57 800 POST ST 1050 TRAFFIC STOP
170122051946 1-22 15:57 W 5TH ST AND HURON ST 22 DOMESTIC
170122051980 1-22 15:55 1900 MONTWARD RD 1050 TRAFFIC STOP
170122051979 1-22 15:55 4600 SAN JOSE BLVD 16 ROAD OBSTRUCTION
170122051976 1-22 15:54 BAYMEADOWS RD AND W CRAVEN RD 16 ROAD OBSTRUCTION
170122051972 1-22 15:53 S I295 EXPWY AND PHILLIPS HWY 96 ASSIST MOTORIST
170122051923 1-22 15:52 3800 W UNIVERSITY BLVD 63 DISPUTE
170122051966 1-22 15:51 3900 CROSS CREEK RD 50 FOUND/ABANDONED PROPERTY
170122051916 1-22 15:51 3800 BAYMEADOWS RD 63 DISPUTE
170122051945 1-22 15:50 2800 W 1ST ST 9T THEFT (TELESERVE)
170122051962 1-22 15:49 E STATE ST AND E UNION ST 13 SUSPICIOUS PERSON
170122051958 1-22 15:49 8800 WESTERN WAY 1066 CANCEL
170122051953 1-22 15:49 CITY CENTER BLVD 13 SUSPICIOUS PERSON
170122051935 1-22 15:47 3000 MONCRIEF RD 9J THEFT JUST OCCURRED
170122051956 1-22 15:45 1700 HODGES BLVD 4 53 TRAFFIC CRASH PERSON INJURED
170122051936 1-22 15:44 7900 103RD ST 63 DISPUTE
170122051952 1-22 15:43 N MORGANA RD AND ROGERO RD 16 ROAD OBSTRUCTION
170122051951 1-22 15:43 10300 SAN JOSE BLVD 1 IMPAIRED/DRUNK DRIVER
170122051709 1-22 15:41 ZOO PKWY AND PARKER AVE 3T HIT AND RUN CRASH - TELESERVE
170122051944 1-22 15:40 1200 LABELLE ST 22 DOMESTIC
170122051874 1-22 15:40 3200 EMERSON ST 27 MENTALLY ILL PERSON
170122051943 1-22 15:38 12400 BISCAYNE BLVD 63 DISPUTE
170122051934 1-22 15:37 11400 VIDALIA CT 27 MENTALLY ILL PERSON
170122051937 1-22 15:35 13200 CITY SQUARE DR 5582 HOLDING ONE FOR SHOPLIFTING
170122051932 1-22 15:35 1700 W 26TH ST 63 DISPUTE
170122051922 1-22 15:33 3300 VALPARISO WAY 1066 CANCEL
170122051924 1-22 15:31 BLANDING BLVD AND PARK ST 4 AUTO CRASH
170122051884 1-22 15:28 6800 NORMANDY BLVD 63 DISPUTE
170122051917 1-22 15:27 2000 BALDWIN ST 63 DISPUTE
170122051889 1-22 15:25 W 10TH ST AND N MAIN ST 4 AUTO CRASH
170122051912 1-22 15:25 1700 N DAVIS ST 76 ASSIST OTHER AGENCY
170122051913 1-22 15:24 E 27TH ST AND N MAIN ST 1050 TRAFFIC STOP
170122051854 1-22 15:22 5900 TOWNSEND RD 9 THEFT
170122051901 1-22 15:19 S UNIVERSITY BLVD AND BEACH BLVD 4 AUTO CRASH
170122051745 1-22 15:18 6300 BLANDING BLVD 63 DISPUTE
170122051840 1-22 15:17 ARGYLE FOREST BLVD AND S OLD MIDDLEBURG RD 1 IMPAIRED/DRUNK DRIVER
170122051896 1-22 15:17 3700 TOLEDO RD 9 THEFT
170122051894 1-22 15:17 5800 JUSTINA CT 63 DISPUTE
170122051873 1-22 15:16 5700 LENOX AVE 22 DOMESTIC
170122051835 1-22 15:15 400 STARRATT RD 73 DRUG INVESTIGATION
170122051891 1-22 15:14 1000 GOLFAIR BLVD 63 DISPUTE
170122051858 1-22 15:12 1700 W HOLLY OAKS LAKE RD 9 THEFT
170122051885 1-22 15:12 400 AIKEN RD 28 DELIVER MESSAGE
170122051881 1-22 15:11 1800 E 8TH ST 63 DISPUTE
170122051880 1-22 15:07 TALLULAH AVE AND N MAIN ST 96 ASSIST MOTORIST
170122051879 1-22 15:07 COLLINS RD AND ROOSEVELT BLVD 4 AUTO CRASH
170122051871 1-22 15:06 N MAIN ST AND PECAN PARK RD 12 RECKLESS DRIVER
170122051851 1-22 15:05 7000 COLLINS RD 5582 HOLDING ONE FOR SHOPLIFTING
170122051869 1-22 15:01 6900 OLD KINGS RD 21R BURGLARY RESIDENCE
170122051847 1-22 15:00 ROOSEVELT BLVD AND S I295 EXPWY 4 AUTO CRASH
170122051867 1-22 15:00 100 W UNION ST 13 SUSPICIOUS PERSON
170122051863 1-22 14:59 3500 SUNSET ST 76 ASSIST OTHER AGENCY
170122051868 1-22 14:59 BEACH BLVD AND HUFFMAN BLVD 1050 TRAFFIC STOP
170122051865 1-22 14:59 700 W CHURCH ST 63 DISPUTE
170122051861 1-22 14:57 400 SANWICK DR 63 DISPUTE
170122051862 1-22 14:56 W 8TH ST AND BOULEVARD 13 SUSPICIOUS PERSON
170122051860 1-22 14:55 MONCRIEF RD AND VOORHIES RD 4 53 TRAFFIC CRASH PERSON INJURED
170122051816 1-22 14:54 100 E 29TH ST 13 SUSPICIOUS PERSON
170122051827 1-22 14:54 7000 N MAIN ST 37 UNVERIFIED 911 CALL
170122051747 1-22 14:53 5200 BEACH BLVD 63 DISPUTE
170122051839 1-22 14:53 9900 OLD BAYMEADOWS RD 63 DISPUTE
170122051845 1-22 14:53 7800 POINT MEADOWS DR 63 DISPUTE
170122051856 1-22 14:52 4400 JAMMES RD 4 53 TRAFFIC CRASH PERSON INJURED
170122051837 1-22 14:50 4700 SOUTHERN PACIFIC DR 63 DISPUTE
170122051825 1-22 14:49 14000 BEACH BLVD 4 AUTO CRASH
170122051817 1-22 14:49 6700 NORMANDY BLVD 14B VANDALISM BUSINESS
170122051842 1-22 14:48 OAKLEAF VILLAGE PKWY AND S OLD MIDDLEBURG RD 4 AUTO CRASH
170122051822 1-22 14:48 SOUTHSIDE BLVD AND BAYMEADOWS RD 4 AUTO CRASH
170122051850 1-22 14:47 2800 MYRTIS RD 1050 TRAFFIC STOP
170122051848 1-22 14:46 3500 SMITHFIELD ST 10 VEHICLE THEFT
170122051826 1-22 14:45 1200 LABELLE ST 22 DOMESTIC
170122051830 1-22 14:45 N I295 EXPWY AND MONUMENT RD 16 ROAD OBSTRUCTION
170122051828 1-22 14:43 S I95 EXPWY AND S FULLER WARREN BRG 4 AUTO CRASH
170122051843 1-22 14:43 BEACH BLVD AND PARENTAL HOME RD 16 ROAD OBSTRUCTION
170122051838 1-22 14:41 100 S BUCKMAN BRG 4 AUTO CRASH
170122051833 1-22 14:40 10700 ATLANTIC BLVD 86 LOST PROPERTY
170122051829 1-22 14:38 ROOSEVELT BLVD AND PARK ST 1050 TRAFFIC STOP
170122051824 1-22 14:37 100 S BUCKMAN BRG 4 53 TRAFFIC CRASH PERSON INJURED
170122051823 1-22 14:37 S I95 EXPWY AND ATLANTIC BLVD 16 ROAD OBSTRUCTION
170122051819 1-22 14:36 5400 DOWAGIAC DR 22 DOMESTIC
170122051818 1-22 14:36 17900 N MAIN ST 4 25 CRASH W/FIRE
170122051786 1-22 14:36 7700 HARE AVE 63 DISPUTE
170122051779 1-22 14:34 10200 SHOPS LN 9P THEFT IN PROGRESS
170122051767 1-22 14:32 5400 S SANTA MONICA BLVD 4 AUTO CRASH
170122051815 1-22 14:32 POWERS AVE AND W UNIVERSITY BLVD 1050 TRAFFIC STOP
170122051682 1-22 14:32 4300 CONFEDERATE POINT RD 63 DISPUTE
170122051661 1-22 14:30 5200 ALPHA AVE 9 THEFT
170122051811 1-22 14:30 12100 LEM TURNER RD 1050 TRAFFIC STOP
170122051808 1-22 14:30 100 W 36TH ST 5388 ASSAULT INVOLVING INJURY
170122051809 1-22 14:29 BLANDING BLVD AND WILSON BLVD 16 ROAD OBSTRUCTION
170122051807 1-22 14:29 HODGES BLVD AND ATLANTIC BLVD 4 53 TRAFFIC CRASH PERSON INJURED
170122051806 1-22 14:29 ABESS BLVD AND N KERNAN BLVD 12 RECKLESS DRIVER
170122051799 1-22 14:27 6000 YOUNGERMAN CIR 63 DISPUTE
170122051657 1-22 14:26 5400 ROOSEVELT BLVD 3 HIT AND RUN CRASH
170122051803 1-22 14:24 103RD ST AND RICKER RD 1050 TRAFFIC STOP
170122051792 1-22 14:23 1200 BALLARD RIDGE RD 13 SUSPICIOUS PERSON
170122051797 1-22 14:22 7000 S OLD KINGS RD 10R VEHICLE THEFT RECOVERY
170122051794 1-22 14:19 ROOSEVELT BLVD AND HUNTINGTON RD 1050 TRAFFIC STOP
170122051778 1-22 14:19 SILVER ST AND W 21ST ST 80 PROSTITUTION (ONLY)
170122051793 1-22 14:16 4200 RIBAULT RIVER LN 86 LOST PROPERTY
170122051775 1-22 14:15 2600 UNIVERSITY BLVD 21C BURGLARY CONVEYANCE
170122051791 1-22 14:15 8400 S PRINCETON SQUARE BLVD 96 ASSIST MOTORIST
170122051788 1-22 14:14 9300 103RD ST 6388 DISPUTE WITH ASSAULT
170122051741 1-22 14:14 6800 ELWOOD AVE 63 DISPUTE
170122051783 1-22 14:11 CLEVELAND ST AND W CHURCH ST 1050 TRAFFIC STOP
170122051774 1-22 14:10 400 SANWICK DR 13 SUSPICIOUS PERSON
170122051776 1-22 14:10 4200 DUNN AVE 13 SUSPICIOUS PERSON
170122051771 1-22 14:10 COMMONWEALTH AVE AND ONTARIO ST 4 AUTO CRASH
170122051777 1-22 14:08 10600 SAN JOSE BLVD 19 ANIMAL INVESTIGATION
170122051772 1-22 14:07 7800 POINT MEADOWS DR 63 DISPUTE
170122051765 1-22 14:06 5800 S BARNES RD 2 63 DISPUTE IMPAIRED/INTOXICATED
170122051746 1-22 14:04 400 W 24TH ST 37 UNVERIFIED 911 CALL
170122051764 1-22 14:03 OAK WATER DR AND MONUMENT RD 16 ROAD OBSTRUCTION
170122051763 1-22 14:03 5400 SANTA ROSA WAY 4 AUTO CRASH
170122051750 1-22 14:02 9200 9TH AVE 87 DAMAGED PROPERTY
170122051760 1-22 14:02 3000 SNELL ST 33 DISCHARGING OF FIREARM
170122051757 1-22 14:00 400 N ARLINGTON RD 14RP VANDALISM RESIDENCE IN PROGRESS
170122051753 1-22 14:00 3200 S UNIVERSITY BLVD 63 DISPUTE
170122051758 1-22 14:00 800 N DAVIS ST 13 SUSPICIOUS PERSON
170122051748 1-22 13:59 7100 MERRILL RD 54 ILLEGALLY PARKED CAR
170122051749 1-22 13:55 TROUT RIVER DR AND N MAIN ST 0 88J ARMED ASSAULT JUST OCCURRED
170122051726 1-22 13:55 8600 N STAR LEAF RD 73 DRUG INVESTIGATION
170122051655 1-22 13:52 1000 WOODSTOCK AVE 63 DISPUTE
170122051579 1-22 13:52 5300 CARDER ST 63 DISPUTE
170122051633 1-22 13:52 900 ALLISON ST 21R BURGLARY RESIDENCE
170122051744 1-22 13:51 UNIVERSITY BLVD AND GABLE LN 12 RECKLESS DRIVER
170122051689 1-22 13:49 5500 RESA TER 88J ASSAULT JUST OCCURRED
170122051724 1-22 13:49 7400 SUGAR PLUM LN 2288 DOMESTIC DISPUTE WITH/ASSAULT
170122051695 1-22 13:49 1000 GOLFAIR BLVD 13 SUSPICIOUS PERSON
170122051706 1-22 13:48 2100 W 13TH ST 88 ASSAULT
170122051699 1-22 13:48 1500 PRUDENTIAL DR 8 MISSING PERSON
170122051735 1-22 13:46 5000 S LINCOLN CIR 13 SUSPICIOUS PERSON
170122051705 1-22 13:45 6300 WILSON BLVD 9 THEFT
170122051679 1-22 13:44 6300 103RD ST 22 DOMESTIC
170122051734 1-22 13:42 W I10 EXPWY AND S CHAFFEE RD 1050 TRAFFIC STOP
170122051721 1-22 13:41 7000 103RD ST 4 AUTO CRASH
170122051728 1-22 13:40 1000 JONES CREEK DR 63 DISPUTE
170122051722 1-22 13:36 W I10 EXPWY AND S LANE AVE 57 PERSON CALLING FOR HELP
170122051720 1-22 13:35 ATLANTIC/HODGES 4 AUTO CRASH
170122051691 1-22 13:35 100 W 22ND ST 63 DISPUTE
170122051713 1-22 13:33 8900 NORMANDY BLVD 1066 CANCEL
170122051688 1-22 13:30 5200 QUAN DR 22 DOMESTIC
170122051710 1-22 13:29 8300 DANDY AVE 63 DISPUTE
170122051664 1-22 13:28 ANDERS BLVD AND FOREST BLVD 2 IMPAIRED/INTOXICATED
170122051638 1-22 13:26 7100 POWERS AVE 63 DISPUTE
170122051707 1-22 13:26 900 N MARKET ST 13 SUSPICIOUS PERSON
170122051685 1-22 13:23 3300 FRANKLIN ST 63 DISPUTE
170122051700 1-22 13:23 200 E UNION ST 13 SUSPICIOUS PERSON
170122051648 1-22 13:23 500 E 60TH ST 9 THEFT
170122051696 1-22 13:23 10300 ALDEN RD 4 AUTO CRASH
170122051694 1-22 13:22 MC CORMICK RD AND MONUMENT RD 4 AUTO CRASH
170122051698 1-22 13:22 6800 ROOSEVELT BLVD 11 ABANDONED VEHICLE
170122051692 1-22 13:21 10500 OLD ST AUGUSTINE RD 1066 CANCEL
170122051693 1-22 13:21 5000 CLEVELAND RD 22 DOMESTIC
170122051680 1-22 13:20 ROCKOLA RD AND 103RD ST 63 DISPUTE
170122051686 1-22 13:18 OLD ST AUGUSTINE RD AND N I95 EXPWY 4 AUTO CRASH
170122051636 1-22 13:18 15000 WADE RD 87 DAMAGED PROPERTY
170122051521 1-22 13:17 5800 LISKA DR 63 DISPUTE
170122051571 1-22 13:17 COLLEGE ST AND ACOSTA ST 16 ROAD OBSTRUCTION
170122051684 1-22 13:16 2900 W 9TH ST 60 SUICIDE OR ATTEMPT
170122051531 1-22 13:15 3700 S ST JOHNS BLUFF RD 3 HIT AND RUN CRASH
170122051646 1-22 13:13 11700 PALM LAKE DR 22 DOMESTIC
170122051553 1-22 13:12 2900 MELHOLLIN DR 63 DISPUTE
170122051674 1-22 13:10 9800 ATLANTIC BLVD 63 DISPUTE
170122051671 1-22 13:07 400 E ADAMS ST 13 SUSPICIOUS PERSON
170122051668 1-22 13:05 12400 BISCAYNE BLVD 1066 CANCEL
170122051666 1-22 13:04 10400 ALTA DR 1066 CANCEL
170122051665 1-22 13:03 100 KING ST 22 DOMESTIC
170122051641 1-22 13:01 E 5TH ST AND HUBBARD ST 2 IMPAIRED/INTOXICATED
170122051662 1-22 13:01 2100 SESSIONS LN 63 DISPUTE
170122051593 1-22 12:59 E BAYMEADOWS RD AND HAMPTON PARK BLVD 63 DISPUTE
170122051656 1-22 12:59 9500 N REGENCY SQUARE BLVD 1066 CANCEL
170122051652 1-22 12:57 16300 DOWING CREEK DR 0 22 DOMESTIC DISTURBANCE W/WEAPON
170122051628 1-22 12:56 3600 ST JOHNS AVE 54 ILLEGALLY PARKED CAR
170122051653 1-22 12:55 ARGYLE FOREST BLVD AND RAMPART RD 1050 TRAFFIC STOP
170122051623 1-22 12:53 7000 RAMONA BLVD 63 DISPUTE
170122051634 1-22 12:53 3900 CROSS CREEK RD 22 DOMESTIC
170122051588 1-22 12:53 6800 ELWOOD AVE 27 MENTALLY ILL PERSON
170122051649 1-22 12:52 900 BRIDIER ST 8 MISSING PERSON
170122051645 1-22 12:52 9300 ATLANTIC BLVD 5582 HOLDING ONE FOR SHOPLIFTING
170122051583 1-22 12:52 2100 PHOENIX AVE 54 ILLEGALLY PARKED CAR
170122051643 1-22 12:51 11500 HARTS RD 63 DISPUTE
170122051642 1-22 12:51 5300 POTOMAC AVE 3388 DISCHARGING FIREARM AT PERSON
170122051647 1-22 12:51 8900 SAN JOSE BLVD 4 AUTO CRASH
170122051612 1-22 12:48 3700 BARMER DR 63 DISPUTE
170122051640 1-22 12:47 900 BRIDIER ST 8 MISSING PERSON
170122051635 1-22 12:47 12100 LEM TURNER RD 5582 HOLDING ONE FOR SHOPLIFTING
170122051590 1-22 12:47 7000 SYCAMORE ST 21R BURGLARY RESIDENCE
170122051620 1-22 12:46 S OLD MIDDLEBURG RD AND 103RD ST 4 AUTO CRASH
170122051540 1-22 12:46 2500 LOWELL AVE 63 DISPUTE
170122051627 1-22 12:46 6800 ROOSEVELT BLVD 13 SUSPICIOUS PERSON
170122051584 1-22 12:45 8200 E PRINCETON SQUARE BLVD 63 DISPUTE
170122051609 1-22 12:44 7900 NORMANDY BLVD 63 DISPUTE
170122051621 1-22 12:44 E I10 EXPWY AND CECIL COMMERCE CENTER PKWY 96 ASSIST MOTORIST
170122051618 1-22 12:43 3600 KIRKPATRICK CIR 56 JUVENILE COMPLAINT
170122051630 1-22 12:43 900 BRIDIER ST 8 MISSING PERSON
170122051519 1-22 12:41 5600 N COLONY PINE CIR 9 THEFT
170122051607 1-22 12:40 11800 RAINDROP RD 21C BURGLARY CONVEYANCE
170122051600 1-22 12:40 LOMAX ST AND PARK ST 50 FOUND/ABANDONED PROPERTY
170122051596 1-22 12:40 3700 SUDBURY AVE 56 JUVENILE COMPLAINT
170122051533 1-22 12:39 6700 BOY BLUE RD 1066 CANCEL
170122051591 1-22 12:38 7200 S LONGHORN CIR 63 DISPUTE
170122051619 1-22 12:38 900 BRIDIER ST 8 MISSING PERSON
170122051592 1-22 12:36 S I295 EXPWY AND BLANDING BLVD 16 ROAD OBSTRUCTION
170122051611 1-22 12:35 HOOD LANDING RD AND JULINGTON CREEK RD 16 ROAD OBSTRUCTION
170122051594 1-22 12:34 11200 BEACH BLVD 63 DISPUTE
170122051608 1-22 12:34 NORMANDY BLVD AND GARTH AVE 4 AUTO CRASH
170122051610 1-22 12:34 N I95 EXPWY 76 ASSIST OTHER AGENCY
170122051603 1-22 12:32 800 GARDENIA LN 22 DOMESTIC
170122051599 1-22 12:30 1800 W 13TH ST 76 ASSIST OTHER AGENCY
170122051555 1-22 12:27 11500 HARTS RD 73 DRUG INVESTIGATION
170122051595 1-22 12:27 10500 LEM TURNER RD 76 ASSIST OTHER AGENCY
170122051585 1-22 12:23 10700 LEM TURNER RD 21B BURGLARY BUSINESS
170122051580 1-22 12:21 N JEFFERSON ST AND W UNION ST 4 AUTO CRASH
170122051445 1-22 12:21 6300 FEDOR CT 14 VANDALISM
170122051582 1-22 12:19 7100 PAUL HOWARD DR 33 DISCHARGING OF FIREARM
170122051559 1-22 12:18 13700 BEACH BLVD 13 SUSPICIOUS PERSON
170122051547 1-22 12:18 14100 HOLLINGS ST 9 THEFT
170122051493 1-22 12:17 5300 JAMMES RD 49 REPORT TO HOSPITAL
170122051524 1-22 12:16 5400 LEAMING AVE 22 DOMESTIC
170122051576 1-22 12:15 14600 DUVAL RD 63 DISPUTE
170122051577 1-22 12:14 1100 DUNN AVE 13 SUSPICIOUS PERSON
170122051578 1-22 12:13 8600 BLANDING BLVD 13 SUSPICIOUS PERSON
170122051570 1-22 12:12 11000 HARTS RD 73 DRUG INVESTIGATION
170122051491 1-22 12:11 700 RIVERSIDE AVE 14B VANDALISM BUSINESS
170122051572 1-22 12:10 S I95 EXPWY AND KINGS RD 4 AUTO CRASH
170122051573 1-22 12:10 NORWOOD AVE AND ARDMORE ST 1050 TRAFFIC STOP
170122051563 1-22 12:06 11900 MAGNOLIA FALLS DR 10 VEHICLE THEFT
170122051569 1-22 12:04 4900 LOSCO RD 17 PERSON DOWN OR SICK
170122051567 1-22 12:04 300 E AUBURN OAKS RD 13 SUSPICIOUS PERSON
170122051560 1-22 12:03 11400 N CISCO GARDENS RD 63 DISPUTE
170122051566 1-22 12:03 TROUT RIVER BLVD AND OLD KINGS RD 1050 TRAFFIC STOP
170122051565 1-22 12:03 EMERSON ST AND W COPPER CIR 1050 TRAFFIC STOP
170122051561 1-22 12:01 8200 KONA AVE 76 ASSIST OTHER AGENCY
170122051550 1-22 12:01 1400 W 18TH ST 63 DISPUTE
170122051543 1-22 11:59 900 BRIDIER ST 8T MISSING PERSON (TELESERVE)
170122051468 1-22 11:58 3500 KINGSTON ST 22 DOMESTIC
170122051554 1-22 11:58 3100 PLUM ST 57 PERSON CALLING FOR HELP
170122051544 1-22 11:56 1700 N MC DUFF AVE 13 SUSPICIOUS PERSON
170122051551 1-22 11:54 4200 PHILLIPS HWY 9P THEFT IN PROGRESS
170122051534 1-22 11:54 1300 N BROAD ST 88J ASSAULT JUST OCCURRED
170122051541 1-22 11:52 4500 ST AUGUSTINE RD 10 VEHICLE THEFT
170122051545 1-22 11:51 W I10 EXPWY AND N I295 EXPWY 76 ASSIST OTHER AGENCY
170122051539 1-22 11:43 BEACH BLVD AND SUNI PINES BLVD 4 53 TRAFFIC CRASH PERSON INJURED
170122051537 1-22 11:43 E I10 EXPWY AND S LANE AVE 60 SUICIDE OR ATTEMPT
170122051508 1-22 11:41 7500 S OLD MIDDLEBURG RD 50 FOUND/ABANDONED PROPERTY
170122051305 1-22 11:41 9200 103RD ST 64 NOISE COMPLAINT
170122051522 1-22 11:41 13800 BEACH BLVD 4 AUTO CRASH
170122051530 1-22 11:41 13200 CITY STATION DR 109 56 JUVENILE COMPLAINT
170122051536 1-22 11:39 800 SPEARING AVW 1050 TRAFFIC STOP
170122051486 1-22 11:39 500 E BAY ST 79T OBSCENE / THREAT CALL OR LETTER TELESERVE
170122051484 1-22 11:39 6200 SPRING FOREST CIR 14CT VANDALISM CONVEYANCE TELESERVE
170122051480 1-22 11:39 2500 HERSCHEL ST 21CT BURGLARY CONVEYANCE TELESERVE
170122051498 1-22 11:37 3500 HAMPTON COVE CT 63 DISPUTE
170122051487 1-22 11:35 600 N NEWNAN ST 63 DISPUTE
170122051526 1-22 11:35 1600 SEMINARY ST 63 DISPUTE
170122051529 1-22 11:35 6400 BLANDING BLVD 96 ASSIST MOTORIST
170122051518 1-22 11:34 9500 N REGENCY SQUARE BLVD 2 IMPAIRED/INTOXICATED
170122051527 1-22 11:34 8200 DIX ELLIS TRL 63 DISPUTE
170122051523 1-22 11:31 6300 FALBRIDGE CT 22 DOMESTIC
170122051393 1-22 11:31 1900 KINGS RD 63 DISPUTE
170122051511 1-22 11:28 6100 COLLINS RD 22 DOMESTIC
170122051496 1-22 11:26 5000 CLEVELAND RD 56 JUVENILE COMPLAINT
170122051514 1-22 11:25 11200 BELMONT OAKS DR 10 VEHICLE THEFT
170122051510 1-22 11:24 11100 W BEAVER ST 22 DOMESTIC
170122051470 1-22 11:22 10900 BEACH BLVD 63 DISPUTE
170122051504 1-22 11:21 3200 PHILLIPS HWY 9 THEFT
170122051474 1-22 11:21 4800 FLORIDA CLUB CIR 22 DOMESTIC
170122051513 1-22 11:20 SPRING PARK RD AND EMERSON ST 1050 TRAFFIC STOP
170122051507 1-22 11:17 4100 DUNN AVE 63 DISPUTE
170122051500 1-22 11:16 11000 BEACH BLVD 83 VICE ACTIVITY (NOT PROSTITUTION)
170122051499 1-22 11:16 1800 JONES ST 61 FIGHT
170122051505 1-22 11:15 7400 N RIDGEWAY RD 13 SUSPICIOUS PERSON
170122051501 1-22 11:14 RICHARDSON RD AND NEW KINGS RD 1050 TRAFFIC STOP
170122051466 1-22 11:14 GRAYSON ST AND N CHAFFEE RD 1066 CANCEL
170122051497 1-22 11:13 1800 N DAVIS ST 37 UNVERIFIED 911 CALL
170122051495 1-22 11:12 10700 BRANDON CHASE DR 1066 CANCEL
170122051483 1-22 11:12 12200 SAN JOSE BLVD 19 ANIMAL INVESTIGATION
170122051494 1-22 11:12 400 CENTURY 21 DR 9 THEFT
170122051489 1-22 11:11 4100 ST AUGUSTINE RD 21C BURGLARY CONVEYANCE
170122051485 1-22 11:10 11700 MCCORMICK RD 13 SUSPICIOUS PERSON
170122051404 1-22 11:10 9500 BAYMEADOWS RD 63 DISPUTE
170122051476 1-22 11:04 S I95 EXPWY AND SAN DIEGO RD 96 ASSIST MOTORIST
170122051385 1-22 11:04 1800 N MYRTLE AVE 11 ABANDONED VEHICLE
170122051482 1-22 11:04 5700 ENCHANTED DR 13 SUSPICIOUS PERSON
170122051481 1-22 11:03 6800 103RD ST 14 VANDALISM
170122051473 1-22 11:02 13800 OLD ST AUGUSTINE RD 1066 CANCEL
170122051460 1-22 11:01 2000 RIVERSIDE AVE 13 SUSPICIOUS PERSON
170122051479 1-22 11:00 RAINES AVE AND W MONCRIEF RD 1050 TRAFFIC STOP
170122051295 1-22 11:00 6200 MORSE OAKS CIR 21C BURGLARY CONVEYANCE
170122051467 1-22 10:58 N I295 EXPWY AND SAN JOSE BLVD 16 ROAD OBSTRUCTION
170122051414 1-22 10:58 8800 LONE STAR RD 21B BURGLARY BUSINESS
170122051475 1-22 10:57 3400 UNIVERSITY BLVD 13 SUSPICIOUS PERSON
170122051472 1-22 10:56 600 N NEWNAN ST 22 DOMESTIC
170122051351 1-22 10:56 N I295 EXPWY AND 103RD ST 19 ANIMAL INVESTIGATION
170122051436 1-22 10:53 CRESTON GLEN CIR AND E HAMPTON LANDING DR 13 SUSPICIOUS PERSON
170122051464 1-22 10:53 5300 JAMMES RD 76 ASSIST OTHER AGENCY
170122051463 1-22 10:53 8500 OCALA AVE 0 60 SUICIDE THREAT W/WEAPON
170122051456 1-22 10:51 9700 ARGYLE FOREST BLVD 63 DISPUTE
170122051330 1-22 10:51 8200 103RD ST 4 AUTO CRASH
170122051454 1-22 10:50 1000 PARADISE LN 37 UNVERIFIED 911 CALL
170122051411 1-22 10:50 10600 INDIGO HILLS LN 63 DISPUTE
170122051361 1-22 10:50 2300 RUSTY LAKES LN 63 DISPUTE
170122051458 1-22 10:50 1500 MONUMENT RD 8 27 MISSING MENTALLY ILL
170122051432 1-22 10:49 9300 BAYMEADOWS RD 37 UNVERIFIED 911 CALL
170122051455 1-22 10:49 2900 MANGROVE AVE 14T VANDALISM (TELESERVE)
170122051421 1-22 10:48 400 PECAN PARK RD 4 AUTO CRASH
170122051452 1-22 10:48 ROOSEVELT BLVD AND DANCY ST 4 53 TRAFFIC CRASH PERSON INJURED
170122051450 1-22 10:47 200 W 68TH ST 14 VANDALISM
170122051453 1-22 10:47 W 32ND ST AND N MAIN ST 1050 TRAFFIC STOP
170122051341 1-22 10:46 1600 TYLER ST 0 88 ARMED ASSAULT
170122051446 1-22 10:46 OLD ST AUGUSTINE RD AND S I295 EXPWY 22 DOMESTIC
170122051397 1-22 10:45 MONROE SMITH RD AND 103RD ST 29 WIRE DOWN
170122051448 1-22 10:45 3700 DANFORTH DR 13 SUSPICIOUS PERSON
170122051447 1-22 10:44 1800 BROWARD RD 1050 TRAFFIC STOP
170122051399 1-22 10:44 5000 CLEVELAND RD 64 NOISE COMPLAINT
170122051427 1-22 10:43 10500 DEERWOOD PARK BLVD 1066 CANCEL
170122051419 1-22 10:42 100 SHIRCLIFF WAY 63 DISPUTE
170122051423 1-22 10:41 S I95 EXPWY AND W UNION ST 16 ROAD OBSTRUCTION
170122051439 1-22 10:41 N I95 EXPWY AND PHILLIPS HWY 4 AUTO CRASH
170122051440 1-22 10:40 JESSIE AND FRANKILIN 13 SUSPICIOUS PERSON
170122051435 1-22 10:40 3200 DELLWOOD AVE 7 DEAD PERSON
170122051429 1-22 10:40 N I95 EXPWY AND PHILLIPS HWY 16 ROAD OBSTRUCTION
170122051437 1-22 10:40 N I95 EXPWY 4 53 TRAFFIC CRASH PERSON INJURED
170122051297 1-22 10:38 2100 COROT DR 22 DOMESTIC
170122051426 1-22 10:37 S I95 EXPWY 4 53 TRAFFIC CRASH PERSON INJURED
170122051367 1-22 10:37 1200 PANGOLA DR 86 LOST PROPERTY
170122051430 1-22 10:37 5600 EDENFIELD RD 57 PERSON CALLING FOR HELP
170122051359 1-22 10:36 3000 ERNEST ST 14 VANDALISM
170122051425 1-22 10:36 JESSIE ST AND FRANKLIN ST 35 OFFICER NEEDS ASSIST
170122051403 1-22 10:34 W UNIVERSITY BLVD AND PHILLIPS HWY 0 13 ARMED SUSPICIOUS PERSON
170122051410 1-22 10:31 900 CESERY TER 27 MENTALLY ILL PERSON
170122051408 1-22 10:29 2600 LOWES PL 8 27 MISSING MENTALLY ILL
170122051415 1-22 10:28 1600 W 14TH ST 87 DAMAGED PROPERTY
170122051412 1-22 10:27 4400 N GOODBYS HIDEAWAY DR 0 60 SUICIDE THREAT W/WEAPON
170122051413 1-22 10:25 HARRISON ST AND E 4TH ST 63 DISPUTE
170122051406 1-22 10:23 11400 VIDALIA CT 22 DOMESTIC
170122051409 1-22 10:23 800 PARK ST 14B VANDALISM BUSINESS
170122051391 1-22 10:17 1900 BALDWIN ST 21RJ BURGLARY RESIDENCE JUST OCCURRED
170122051400 1-22 10:17 2400 E ALDEN TRACE BLVD 22 DOMESTIC
170122051401 1-22 10:16 7800 DEVOE ST 21R BURGLARY RESIDENCE
170122051360 1-22 10:16 500 S LANE AVE 70 COUNTERFEIT
170122051395 1-22 10:14 SHINDLER DR AND COLLINS RD 62 PERSON CUT
170122051396 1-22 10:13 7300 SHINDLER DR 62 PERSON CUT
170122051394 1-22 10:13 12800 E HAVERFORD RD 63 DISPUTE
170122051392 1-22 10:12 400 CATHERINE ST 63 DISPUTE
170122051346 1-22 10:11 7800 E BAYMEADOWS RD 22 DOMESTIC
170122051387 1-22 10:08 E JTB/SAN PABLO 1050 TRAFFIC STOP
170122051383 1-22 10:07 900 KINGS RD 63 DISPUTE
170122051379 1-22 10:06 4400 PHILLIPS HWY 5388 ASSAULT INVOLVING INJURY
170122051380 1-22 10:05 10100 103RD ST 1066 CANCEL
170122051377 1-22 10:01 11400 MC CORMICK RD 21C BURGLARY CONVEYANCE
170122051378 1-22 10:01 11800 ALDEN RD 13 SUSPICIOUS PERSON
170122051374 1-22 10:00 1600 W 13TH ST 3388 DISCHARGING FIREARM AT PERSON
170122051373 1-22 09:59 10000 ATLANTIC BLVD 76 ASSIST OTHER AGENCY
170122051366 1-22 09:56 JTB/HODGES 1050 TRAFFIC STOP
170122051362 1-22 09:56 2300 GRUNTHAL ST 3388 DISCHARGING FIREARM AT PERSON
170122051332 1-22 09:53 800 RUDDER RD 2 22 DOMESTIC DISTURBANCE
170122051309 1-22 09:50 4500 SAN JUAN AVE 14BP VANDALISM BUSINESS IN PROGRESS
170122051349 1-22 09:48 2700 SOPHIA ST 6388 DISPUTE WITH ASSAULT
170122051340 1-22 09:48 6200 SPRING FOREST CIR 14CT VANDALISM CONVEYANCE TELESERVE
170122051337 1-22 09:47 4200 POLO CT 21CT BURGLARY CONVEYANCE TELESERVE
170122051348 1-22 09:47 3000 MONCRIEF RD 9P THEFT IN PROGRESS
170122051338 1-22 09:44 4300 CONFEDERATE POINT RD 88P ASSAULT IN PROGRESS
170122051344 1-22 09:40 11700 HARTS RD 1050 TRAFFIC STOP
170122051317 1-22 09:39 1200 LABELLE ST 64 NOISE COMPLAINT
170122051326 1-22 09:36 1000 GOLFAIR BLVD 9 THEFT
170122051334 1-22 09:36 14700 MANDARIN RD 4 AUTO CRASH
170122051336 1-22 09:34 7000 ARQUES RD 76 ASSIST OTHER AGENCY
170122051315 1-22 09:34 2600 UNIVERSITY BLVD 14C VANDALISM CONVEYANCE
170122051333 1-22 09:33 2100 E DERRINGER CIR 21C BURGLARY CONVEYANCE
170122051323 1-22 09:29 N I95 EXPWY AND J TURNER BUTLER BLVD 1050 TRAFFIC STOP
170122051318 1-22 09:29 9700 S VILLIERS DR 5388 ASSAULT INVOLVING INJURY
170122051320 1-22 09:28 8900 OLD KINGS RD 88 ASSAULT
170122051313 1-22 09:25 2500 MAYPORT RD 2 63 DISPUTE IMPAIRED/INTOXICATED
170122051302 1-22 09:25 3500 ST AUGUSTINE RD 14B VANDALISM BUSINESS
170122051312 1-22 09:25 10300 WESTMAR RD 88 ASSAULT
170122051308 1-22 09:21 2200 OXBOW RD 63 DISPUTE
170122051293 1-22 09:18 7400 POWERS AVE 4 AUTO CRASH
170122051258 1-22 09:17 9900 IOWA AVE 21R BURGLARY RESIDENCE
170122051299 1-22 09:15 6300 ARLINGTON RD 8 27 MISSING MENTALLY ILL
170122051252 1-22 09:12 4800 RIVER POINT RD 9 THEFT
170122051279 1-22 09:12 4300 SUNBEAM RD 14BT VANDALISM BUSINESS TELE-SERVE
170122051294 1-22 09:12 1700 FONSICA WAY 8 MISSING PERSON
170122051292 1-22 09:10 OLD ST AUGUSTINE RD AND SAN JOSE BLVD 4 53 TRAFFIC CRASH PERSON INJURED
170122051287 1-22 09:07 9100 S US 301 HWY 21BJ BURGLARY BUSINESS JUST OCCURRED
170122051272 1-22 09:06 2400 CASTAWAY DR 88 ASSAULT
170122051281 1-22 09:06 8800 PERIMETER PARK BLVD 63 DISPUTE
170122051288 1-22 09:03 7000 S TAMPICO RD 7 DEAD PERSON
170122051280 1-22 08:57 HOGAN/FOSTER 1050 TRAFFIC STOP
170122051276 1-22 08:56 8000 FABRAY DR 63 DISPUTE
170122051275 1-22 08:53 3200 MYRA ST 22 DOMESTIC
170122051254 1-22 08:52 N I295 EXPWY AND ALTA DR 11 ABANDONED VEHICLE
170122051271 1-22 08:52 2600 DEBBIE CT 1066 CANCEL
170122051273 1-22 08:51 N I295 EXPWY AND WILSON BLVD 1050 TRAFFIC STOP
170122051250 1-22 08:51 5900 HECKSCHER DR 22 DOMESTIC
170122051268 1-22 08:48 N I95 EXPWY AND J TURNER BUTLER BLVD 1050 TRAFFIC STOP
170122051260 1-22 08:46 W UNIVERSITY BLVD AND PHILLIPS HWY 91 TRAFFIC LIGHT/RR CROSSING MALFUNCTION
170122051255 1-22 08:46 2300 PHILLIPS HWY 63 DISPUTE
170122051241 1-22 08:44 5800 S BARNES RD 76 ASSIST OTHER AGENCY
170122051257 1-22 08:43 1700 N LAURA ST 13 SUSPICIOUS PERSON
170122051253 1-22 08:40 5700 COOKE ST 19 ANIMAL INVESTIGATION
170122051238 1-22 08:23 800 FRANKLIN ST 22 DOMESTIC
170122051192 1-22 08:21 7300 W JOHN F KENNEDY DR 63 DISPUTE
170122051201 1-22 08:20 8400 MALLORY RD 9 THEFT
170122051220 1-22 08:20 1500 MONUMENT RD 63 DISPUTE
170122051237 1-22 08:20 5400 ROOSE 1050 TRAFFIC STOP
170122051236 1-22 08:20 600 CEDAR AVE 22 DOMESTIC
170122051235 1-22 08:17 1200 RIVER BANK CT 88P ASSAULT IN PROGRESS
170122051229 1-22 08:12 2400 JAMMES RD 54 ILLEGALLY PARKED CAR
170122051227 1-22 08:10 5200 BEACH BLVD 63 DISPUTE
170122051226 1-22 08:10 6700 BLANDING BLVD 0 23BJ ARMED ROBBERY BUSINESS JUST OCCURRED
170122051219 1-22 08:06 200 E 47TH ST 22 DOMESTIC
170122051206 1-22 08:01 5000 CLEVELAND RD 63 DISPUTE
170122051215 1-22 08:00 HARTS RD AND DUNN AVE 22 DOMESTIC
170122051210 1-22 07:56 4100 SUNBEAM RD 1066 CANCEL
170122051200 1-22 07:50 6800 GOLFVIEW ST 21R BURGLARY RESIDENCE
170122051204 1-22 07:50 100 N DAMES POINT BRG 16 ROAD OBSTRUCTION
170122051203 1-22 07:48 5800 JUSTINA CT 10R VEHICLE THEFT RECOVERY
170122051199 1-22 07:48 3300 FOREST BLVD 13 SUSPICIOUS PERSON
170122051202 1-22 07:48 2100 2ND ST 1066 CANCEL
170122051189 1-22 07:48 10300 E ARROW LAKES DR 10 VEHICLE THEFT
170122051194 1-22 07:46 NORMANDY BLVD AND S CHAFFEE RD 4 53 TRAFFIC CRASH PERSON INJURED
170122051186 1-22 07:37 7900 ATLANTIC. 13 SUSPICIOUS PERSON
170122051182 1-22 07:33 7000 LEM TURNER RD 1050 TRAFFIC STOP
170122051170 1-22 07:30 3200 FITZGERALD ST 14R VANDALISM RESIDENCE
170122051173 1-22 07:26 6300 YOUNGERMAN CIR 13 SUSPICIOUS PERSON
170122051181 1-22 07:23 600 N WASHINGTON ST 63 DISPUTE
170122051180 1-22 07:22 1600 PARADELA PL 14 VANDALISM
170122051149 1-22 07:21 9500 SIBBALD RD 22 DOMESTIC
170122051175 1-22 07:16 1100 W ROMAINE CIR 8 MISSING PERSON
170122051148 1-22 07:15 5200 SOUTEL DR 63 DISPUTE
170122051177 1-22 07:15 400 S EDGEWOOD AVE 1066 CANCEL
170122051178 1-22 07:14 900 S LANE AVE 1050 TRAFFIC STOP
170122051155 1-22 07:04 1700 N DAVIS ST 4 AUTO CRASH
170122051171 1-22 07:02 1100 S LANE AVE 1050 TRAFFIC STOP